Date String (YYYY-MM-DD hh:mm:ss) UTC,Instrument flags,Ambient pressure (hPa),Sample flow (lpm),Bypass flow (lpm),Sample temperature (°C),Ambient temperature (°C),ASC tube jacket temperature (°C),LED temperature (°C),Box temperature (°C),Sample RH (%),Span deviation,Mass concentration (μg/m³),Mass concentration (μg/m³),Mass concentration (μg/m³)
DateTimeUTC,F1_M11,P_M11,Q1_M11,Q2_M11,T1_M11,T2_M11,T3_M11,T4_M11,T5_M11,U1_M11,ZSPAN_M11,X0_M11,X2_M11,X1_M11
2022-04-09 19:00:00,,0815.8,5.00,0.00,30.1,29.2,00.0,39.1,31.8,06.1,0000.0,0009.92,0003.76,0001.98
2022-04-09 19:01:00,,0815.8,5.00,0.00,30.1,29.2,00.0,39.1,31.8,06.1,0000.0,0010.01,0003.79,0001.97
2022-04-09 19:02:00,,0815.8,5.00,0.00,30.1,29.1,00.0,39.1,31.9,06.3,0000.0,0010.00,0003.81,0001.97
2022-04-09 19:03:00,,0815.8,4.99,0.00,30.2,29.1,00.0,39.1,31.8,06.3,0000.0,0009.70,0003.87,0001.99
2022-04-09 19:04:00,,0815.8,5.00,0.00,30.2,29.1,00.0,39.1,31.9,06.2,0000.0,0009.75,0003.90,0001.98
2022-04-09 19:05:00,,0815.8,5.01,0.00,30.2,29.1,00.0,39.1,31.9,06.2,0000.0,0009.69,0003.83,0001.97
2022-04-09 19:06:00,,0815.8,4.99,0.00,30.2,29.1,00.0,39.1,31.9,06.2,0000.0,0009.81,0003.84,0001.97
2022-04-09 19:07:00,,0815.5,5.00,0.00,30.2,29.2,00.0,39.1,31.9,06.3,0000.0,0009.79,0003.83,0001.98
2022-04-09 19:08:00,,0815.8,5.01,0.00,30.2,29.1,00.0,39.1,31.9,06.3,0000.0,0009.90,0003.89,0001.99
2022-04-09 19:09:00,,0815.9,4.99,0.00,30.2,29.2,00.0,39.1,31.9,06.4,0000.0,0009.60,0003.91,0002.00
2022-04-09 19:10:00,,0815.6,5.00,0.00,30.2,29.2,00.0,39.1,31.9,06.4,0000.0,0010.43,0003.93,0002.00
2022-04-09 19:11:00,,0815.7,5.01,0.00,30.2,29.2,00.0,39.1,31.9,06.3,0000.0,0010.58,0003.95,0002.01
2022-04-09 19:12:00,,0816.0,4.99,0.00,30.2,29.2,00.0,39.1,31.9,06.3,0000.0,0010.54,0003.96,0002.01
2022-04-09 19:13:00,,0815.7,4.99,0.00,30.2,29.2,00.0,39.1,31.9,06.3,0000.0,0010.63,0004.00,0002.01
2022-04-09 19:14:00,,0815.6,5.01,0.00,30.2,29.2,00.0,39.1,31.9,06.2,0000.0,0010.60,0003.99,0002.00
2022-04-09 19:15:00,,0815.9,5.00,0.00,30.2,29.3,00.0,39.1,31.9,06.2,0000.0,0010.79,0004.00,0002.00
2022-04-09 19:16:00,,0816.1,4.99,0.00,30.2,29.3,00.0,39.1,31.9,06.6,0000.0,0011.20,0004.00,0002.00
2022-04-09 19:17:00,,0815.9,5.00,0.00,30.2,29.3,00.0,39.1,31.9,06.4,0000.0,0011.07,0003.98,0001.98
2022-04-09 19:18:00,,0815.7,4.99,0.00,30.3,29.3,00.0,39.2,32.0,06.5,0000.0,0010.99,0003.96,0001.95
2022-04-09 19:19:00,,0815.3,5.01,0.00,30.3,29.3,00.0,39.2,32.0,06.4,0000.0,0011.34,0003.89,0001.93
2022-04-09 19:20:00,,0815.2,5.00,0.00,30.3,29.4,00.0,39.2,32.0,06.2,0000.0,0011.54,0003.90,0001.92
2022-04-09 19:21:00,,0815.2,4.99,0.00,30.3,29.4,00.0,39.2,32.0,06.3,0000.0,0010.88,0003.91,0001.92
2022-04-09 19:22:00,,0815.3,5.00,0.00,30.3,29.4,00.0,39.2,32.0,06.3,0000.0,0011.33,0003.88,0001.89
2022-04-09 19:23:00,,0815.3,5.01,0.00,30.3,29.4,00.0,39.2,32.0,06.3,0000.0,0012.19,0003.89,0001.89
2022-04-09 19:24:00,,0815.3,5.00,0.00,30.3,29.5,00.0,39.2,32.0,06.3,0000.0,0012.92,0003.89,0001.89
2022-04-09 19:25:00,,0815.3,4.99,0.00,30.3,29.5,00.0,39.2,32.0,06.2,0000.0,0013.01,0003.87,0001.91
2022-04-09 19:26:00,,0815.3,4.99,0.00,30.3,29.5,00.0,39.2,32.0,06.1,0000.0,0013.06,0003.88,0001.92
2022-04-09 19:27:00,,0815.3,5.01,0.00,30.3,29.5,00.0,39.2,32.1,06.4,0000.0,0012.68,0003.91,0001.93
2022-04-09 19:28:00,,0815.9,5.01,0.00,30.4,29.5,00.0,39.3,32.1,06.4,0000.0,0012.95,0003.95,0001.95
2022-04-09 19:29:00,,0815.8,4.99,0.00,30.4,29.5,00.0,39.3,32.1,06.3,0000.0,0013.13,0004.00,0001.96
2022-04-09 19:30:00,,0815.9,5.00,0.00,30.4,28.3,00.0,39.3,31.9,06.0,0000.0,0012.64,0004.06,0001.98
2022-04-09 19:31:00,,0816.0,5.01,0.00,30.3,26.5,00.0,39.3,31.6,06.4,0000.0,0012.35,0004.01,0001.98
2022-04-09 19:32:00,,0815.5,4.99,0.00,30.2,26.5,00.0,39.3,31.5,06.5,0000.0,0012.92,0004.06,0002.00
2022-04-09 19:33:00,,0815.3,5.00,0.00,30.1,26.9,00.0,39.2,31.5,06.7,0000.0,0012.50,0004.11,0002.02
2022-04-09 19:34:00,,0815.2,5.00,0.00,30.0,27.3,00.0,39.1,31.6,06.8,0000.0,0012.18,0004.11,0002.03
2022-04-09 19:35:00,,0815.2,5.01,0.00,30.1,27.7,00.0,39.1,31.6,06.9,0000.0,0012.39,0004.13,0002.02
2022-04-09 19:36:00,,0815.3,5.00,0.00,30.0,28.0,00.0,39.1,31.7,06.3,0000.0,0012.21,0004.12,0002.01
2022-04-09 19:37:00,,0815.3,5.01,0.00,30.0,28.2,00.0,39.1,31.7,06.1,0000.0,0012.06,0004.12,0002.02
2022-04-09 19:38:00,,0815.2,4.99,0.00,30.1,28.4,00.0,39.1,31.7,06.4,0000.0,0012.03,0004.09,0002.02
2022-04-09 19:39:00,,0815.2,5.00,0.00,30.1,28.6,00.0,39.1,31.8,06.4,0000.0,0012.06,0004.10,0002.01
2022-04-09 19:40:00,,0815.3,5.01,0.00,30.1,28.7,00.0,39.1,31.8,06.4,0000.0,0012.41,0004.11,0002.01
2022-04-09 19:41:00,,0815.2,4.99,0.00,30.1,28.8,00.0,39.1,31.8,06.6,0000.0,0012.46,0004.10,0001.99
2022-04-09 19:42:00,,0815.2,5.02,0.00,30.1,28.9,00.0,39.1,31.9,06.5,0000.0,0013.55,0004.13,0001.97
2022-04-09 19:43:00,,0815.2,5.00,0.00,30.1,29.0,00.0,39.1,31.9,06.3,0000.0,0012.96,0004.09,0001.96
2022-04-09 19:44:00,,0815.2,5.00,0.00,30.2,29.1,00.0,39.1,31.9,06.2,0000.0,0012.64,0004.04,0001.95
2022-04-09 19:45:00,,0815.2,5.02,0.00,30.2,29.1,00.0,39.1,31.9,06.1,0000.0,0012.46,0003.99,0001.94
2022-04-09 19:46:00,,0815.1,4.99,0.00,30.2,29.2,00.0,39.1,31.9,06.2,0000.0,0011.56,0003.97,0001.93
2022-04-09 19:47:00,,0815.1,4.98,0.00,30.2,29.2,00.0,39.1,31.9,06.3,0000.0,0011.64,0003.94,0001.92
2022-04-09 19:48:00,,0815.1,5.01,0.00,30.2,29.2,00.0,39.1,32.0,06.1,0000.0,0012.04,0003.94,0001.90
2022-04-09 19:49:00,,0815.2,4.99,0.00,30.2,29.3,00.0,39.1,32.0,06.0,0000.0,0012.14,0003.93,0001.89
2022-04-09 19:50:00,,0815.1,5.01,0.00,30.3,29.3,00.0,39.1,32.0,06.3,0000.0,0012.10,0003.91,0001.89
2022-04-09 19:51:00,,0815.0,5.00,0.00,30.3,29.2,00.0,39.1,32.0,06.1,0000.0,0011.65,0003.85,0001.87
2022-04-09 19:52:00,,0815.0,5.00,0.00,30.2,27.4,00.0,39.2,31.7,06.4,0000.0,0011.40,0003.82,0001.85
2022-04-09 19:53:00,,0815.1,4.99,0.00,30.1,25.9,00.0,39.1,31.3,06.3,0000.0,0010.88,0003.77,0001.84
2022-04-09 19:54:00,,0814.9,5.01,0.00,30.0,26.0,00.0,39.1,31.3,06.3,0000.0,0011.33,0003.78,0001.85
2022-04-09 19:55:00,,0815.0,4.99,0.00,29.9,26.4,00.0,39.0,31.4,06.3,0000.0,0011.53,0003.82,0001.86
2022-04-09 19:56:00,,0815.0,5.01,0.00,29.9,26.9,00.0,39.0,31.4,06.4,0000.0,0011.34,0003.88,0001.87
2022-04-09 19:57:00,,0814.9,5.00,0.00,29.9,27.3,00.0,38.9,31.4,06.4,0000.0,0011.12,0003.89,0001.86
2022-04-09 19:58:00,,0814.9,4.98,0.00,29.9,27.6,00.0,38.9,31.5,06.4,0000.0,0011.14,0003.87,0001.86
2022-04-09 19:59:00,,0814.9,5.01,0.00,29.9,27.9,00.0,38.9,31.5,06.5,0000.0,0010.58,0003.82,0001.87
